SB KEPS @ AMSAT $ORB07081.O Orbital Elements 07081.OSCAR
HR AMSAT ORBITAL ELEMENTS FOR OSCAR SATELLITES FROM WA5QGD FORT WORTH,TX March 22, 2007 Send SUBSCRIBE KEPS/UNSUBSCRIBE KEPS to majordomo@amsat.org only BID: ORB07081.O TO ALL RADIO AMATEURS BT
Satellite: AO-07 Catalog number: 07530 Epoch time: 07079.55636236 Element set: 0833 Inclination: 101.5276 deg RA of node: 120.1383 deg Eccentricity: 0.0012117 Arg of perigee: 069.3281 deg Mean anomaly: 290.9092 deg Mean motion: 12.53572623 rev/day Decay rate: -2.8e-07 rev/day^2 Epoch rev: 48001 Checksum: 278
Satellite: AO-10 Catalog number: 14129 Epoch time: 07081.11508482 Element set: 367 Inclination: 026.7903 deg RA of node: 285.8012 deg Eccentricity: 0.6054589 Arg of perigee: 007.6643 deg Mean anomaly: 358.5740 deg Mean motion: 02.05869471 rev/day Decay rate: -1.4e-07 rev/day^2 Epoch rev: 17877 Checksum: 316
Satellite: UO-11 Catalog number: 14781 Epoch time: 07079.93464239 Element set: 0330 Inclination: 098.1967 deg RA of node: 100.9032 deg Eccentricity: 0.0010129 Arg of perigee: 094.4272 deg Mean anomaly: 265.8063 deg Mean motion: 14.79530888 rev/day Decay rate: -2.00e-06 rev/day^2 Epoch rev: 23668 Checksum: 309
Satellite: RS-10/11 Catalog number: 18129 Epoch time: 07080.66128544 Element set: 251 Inclination: 082.9235 deg RA of node: 122.9363 deg Eccentricity: 0.0013242 Arg of perigee: 047.1950 deg Mean anomaly: 313.0325 deg Mean motion: 13.72785374 rev/day Decay rate: 3.8e-07 rev/day^2 Epoch rev: 98922 Checksum: 292
Satellite: RS-15 Catalog number: 23439 Epoch time: 07080.71001461 Element set: 0031 Inclination: 064.8193 deg RA of node: 148.3898 deg Eccentricity: 0.0162343 Arg of perigee: 206.2077 deg Mean anomaly: 153.0562 deg Mean motion: 11.27551794 rev/day Decay rate: -3.9e-07 rev/day^2 Epoch rev: 50383 Checksum: 288
Satellite: FO-29 Catalog number: 24278 Epoch time: 07080.93856899 Element set: 0473 Inclination: 098.5399 deg RA of node: 052.3366 deg Eccentricity: 0.0350344 Arg of perigee: 309.5590 deg Mean anomaly: 047.5076 deg Mean motion: 13.52928584 rev/day Decay rate: -2.7e-07 rev/day^2 Epoch rev: 52310 Checksum: 346
Satellite: SO-33 Catalog number: 25509 Epoch time: 07080.53914948 Element set: 889 Inclination: 031.4335 deg RA of node: 001.2838 deg Eccentricity: 0.0354723 Arg of perigee: 021.0974 deg Mean anomaly: 340.3881 deg Mean motion: 14.28153816 rev/day Decay rate: 7.5e-07 rev/day^2 Epoch rev: 43871 Checksum: 310
Satellite: AO-40 Catalog number: 26609 Epoch time: 07080.75746372 Element set: 852 Inclination: 004.9165 deg RA of node: 163.4459 deg Eccentricity: 0.7990300 Arg of perigee: 291.0426 deg Mean anomaly: 005.9869 deg Mean motion: 01.25586608 rev/day Decay rate: 2.7e-07 rev/day^2 Epoch rev: 2934 Checksum: 323
Satellite: VO-52 Catalog number: 28650 Epoch time: 07080.70033929 Element set: 584 Inclination: 097.8384 deg RA of node: 153.3528 deg Eccentricity: 0.0027580 Arg of perigee: 176.1487 deg Mean anomaly: 184.0069 deg Mean motion: 14.81282099 rev/day Decay rate: 3.56e-06 rev/day^2 Epoch rev: 10146 Checksum: 323
Satellite: PO-63 Catalog number: 29712 Epoch time: 07081.68608661 Element set: 210 Inclination: 097.9303 deg RA of node: 142.0187 deg Eccentricity: 0.0015245 Arg of perigee: 053.4433 deg Mean anomaly: 306.8172 deg Mean motion: 14.79597819 rev/day Decay rate: 5.45e-06 rev/day^2 Epoch rev: 1054 Checksum: 304
/EX SB KEPS @ AMSAT $ORB07081.D Orbital Elements 07081.MICROS
HR AMSAT ORBITAL ELEMENTS FOR THE MICROSATS FROM WA5QGD FORT WORTH,TX March 22, 2007 Send SUBSCRIBE KEPS/UNSUBSCRIBE KEPS to majordomo@amsat.org only BID: ORB07081.D TO ALL RADIO AMATEURS BT
Satellite: AO-16 Catalog number: 20439 Epoch time: 07081.64340274 Element set: 993 Inclination: 098.1947 deg RA of node: 080.9791 deg Eccentricity: 0.0011988 Arg of perigee: 084.2087 deg Mean anomaly: 276.0464 deg Mean motion: 14.31753861 rev/day Decay rate: 2.4e-07 rev/day^2 Epoch rev: 89616 Checksum: 335
Satellite: LO-19 Catalog number: 20442 Epoch time: 07081.62651154 Element set: 920 Inclination: 098.1824 deg RA of node: 090.4160 deg Eccentricity: 0.0012939 Arg of perigee: 084.2613 deg Mean anomaly: 276.0060 deg Mean motion: 14.31994568 rev/day Decay rate: -5.3e-07 rev/day^2 Epoch rev: 89630 Checksum: 296
Satellite: AO-27 Catalog number: 22825 Epoch time: 07079.91661544 Element set: 0643 Inclination: 098.3206 deg RA of node: 053.6874 deg Eccentricity: 0.0008642 Arg of perigee: 157.3812 deg Mean anomaly: 202.7736 deg Mean motion: 14.29202283 rev/day Decay rate: -4.4e-07 rev/day^2 Epoch rev: 70288 Checksum: 313
Satellite: IO-26 Catalog number: 22826 Epoch time: 07080.46909330 Element set: 339 Inclination: 098.3146 deg RA of node: 055.3231 deg Eccentricity: 0.0009050 Arg of perigee: 153.2748 deg Mean anomaly: 206.8895 deg Mean motion: 14.29448251 rev/day Decay rate: 2.0e-08 rev/day^2 Epoch rev: 70304 Checksum: 292
Satellite: PO-28 Catalog number: 22829 Epoch time: 07079.90826364 Element set: 0618 Inclination: 098.3026 deg RA of node: 055.9657 deg Eccentricity: 0.0010217 Arg of perigee: 129.7007 deg Mean anomaly: 230.5073 deg Mean motion: 14.30146880 rev/day Decay rate: -7.0e-07 rev/day^2 Epoch rev: 70319 Checksum: 305
Satellite: GO-32 Catalog number: 25397 Epoch time: 07080.69701444 Element set: 0260 Inclination: 098.4262 deg RA of node: 131.6951 deg Eccentricity: 0.0002021 Arg of perigee: 114.1422 deg Mean anomaly: 245.9974 deg Mean motion: 14.23121410 rev/day Decay rate: -1.28e-06 rev/day^2 Epoch rev: 45171 Checksum: 265
Satellite: MO-46 Catalog number: 26548 Epoch time: 07079.51549498 Element set: 0751 Inclination: 064.5551 deg RA of node: 096.9805 deg Eccentricity: 0.0025897 Arg of perigee: 208.9856 deg Mean anomaly: 150.9814 deg Mean motion: 14.83112255 rev/day Decay rate: 6.0e-07 rev/day^2 Epoch rev: 35039 Checksum: 345
Satellite: NO-44 Catalog number: 26931 Epoch time: 07080.28072297 Element set: 0546 Inclination: 067.0540 deg RA of node: 013.9293 deg Eccentricity: 0.0006683 Arg of perigee: 277.7079 deg Mean anomaly: 082.3263 deg Mean motion: 14.29475256 rev/day Decay rate: -2.64e-06 rev/day^2 Epoch rev: 28553 Checksum: 322
Satellite: SO-50 Catalog number: 27607 Epoch time: 07081.25401229 Element set: 271 Inclination: 064.5610 deg RA of node: 348.9691 deg Eccentricity: 0.0044025 Arg of perigee: 027.0815 deg Mean anomaly: 333.2570 deg Mean motion: 14.71239254 rev/day Decay rate: 7.5e-07 rev/day^2 Epoch rev: 22833 Checksum: 280
Satellite: CO-55 Catalog number: 27844 Epoch time: 07080.62153793 Element set: 0988 Inclination: 098.7215 deg RA of node: 090.1132 deg Eccentricity: 0.0010130 Arg of perigee: 349.4219 deg Mean anomaly: 010.6747 deg Mean motion: 14.20498802 rev/day Decay rate: 7.7e-07 rev/day^2 Epoch rev: 19304 Checksum: 301
Satellite: CO-57 Catalog number: 27848 Epoch time: 07080.56054583 Element set: 949 Inclination: 098.7200 deg RA of node: 089.2803 deg Eccentricity: 0.0009943 Arg of perigee: 352.7988 deg Mean anomaly: 007.3062 deg Mean motion: 14.20319338 rev/day Decay rate: 4.1e-07 rev/day^2 Epoch rev: 19301 Checksum: 319
Satellite: AO-51 Catalog number: 28375 Epoch time: 07081.67672439 Element set: 775 Inclination: 098.1251 deg RA of node: 125.4108 deg Eccentricity: 0.0084973 Arg of perigee: 084.2541 deg Mean anomaly: 276.8327 deg Mean motion: 14.40559570 rev/day Decay rate: 1.9e-07 rev/day^2 Epoch rev: 14325 Checksum: 323
Satellite: CO-56 Catalog number: 28941 Epoch time: 07081.60787080 Element set: 384 Inclination: 098.1409 deg RA of node: 133.2533 deg Eccentricity: 0.0239163 Arg of perigee: 218.6507 deg Mean anomaly: 139.7404 deg Mean motion: 15.35942076 rev/day Decay rate: 1.3432e-04 rev/day^2 Epoch rev: 6012 Checksum: 306
Satellite: HO-59 Catalog number: 29484 Epoch time: 07080.57786193 Element set: 0237 Inclination: 098.2980 deg RA of node: 117.4539 deg Eccentricity: 0.0233498 Arg of perigee: 218.3350 deg Mean anomaly: 140.1085 deg Mean motion: 15.43907347 rev/day Decay rate: 2.2113e-04 rev/day^2 Epoch rev: 02752 Checksum: 326
Satellite: NO-60 Catalog number: 29661 Epoch time: 07081.37756408 Element set: 120 Inclination: 051.6401 deg RA of node: 185.8905 deg Eccentricity: 0.0012920 Arg of perigee: 003.1672 deg Mean anomaly: 356.9358 deg Mean motion: 15.93265110 rev/day Decay rate: 6.8270e-04 rev/day^2 Epoch rev: 1451 Checksum: 289
Satellite: NO-61 Catalog number: 29664 Epoch time: 07081.75849409 Element set: 91 Inclination: 051.6363 deg RA of node: 186.1544 deg Eccentricity: 0.0015442 Arg of perigee: 005.9049 deg Mean anomaly: 354.2134 deg Mean motion: 15.86149042 rev/day Decay rate: 2.0313e-04 rev/day^2 Epoch rev: 1441 Checksum: 291
/EX SB KEPS @ AMSAT $ORB07081.W Orbital Elements 07081.WEATHER
HR AMSAT ORBITAL ELEMENTS FOR WEATHER SATELLITES FROM WA5QGD FORT WORTH,TX March 22, 2007 Send SUBSCRIBE KEPS/UNSUBSCRIBE KEPS to majordomo@amsat.org only BID: ORB07081.W TO ALL RADIO AMATEURS BT
Satellite: NOAA-10 Catalog number: 16969 Epoch time: 07080.67698166 Element set: 0593 Inclination: 098.7514 deg RA of node: 097.7839 deg Eccentricity: 0.0013189 Arg of perigee: 064.3958 deg Mean anomaly: 295.8574 deg Mean motion: 14.27319793 rev/day Decay rate: -8.6e-07 rev/day^2 Epoch rev: 06674 Checksum: 382
Satellite: NOAA-11 Catalog number: 19531 Epoch time: 07080.72316274 Element set: 0592 Inclination: 098.8106 deg RA of node: 170.9804 deg Eccentricity: 0.0010918 Arg of perigee: 280.1471 deg Mean anomaly: 079.8516 deg Mean motion: 14.14839978 rev/day Decay rate: 2.40e-06 rev/day^2 Epoch rev: 95378 Checksum: 325
Satellite: NOAA-12 Catalog number: 21263 Epoch time: 07081.47913179 Element set: 84 Inclination: 098.7510 deg RA of node: 078.8708 deg Eccentricity: 0.0012834 Arg of perigee: 003.1283 deg Mean anomaly: 356.9984 deg Mean motion: 14.25523933 rev/day Decay rate: -2.00e-06 rev/day^2 Epoch rev: 82389 Checksum: 313
